Other Public Products
Issued by NWS Grand Forks, ND

Home | Current Version | Previous Version | Graphics & Text | Print | Product List | Glossary On
Versions: 1 2 3 4 5 6 7 8 9 10 11 12 13 14 15 16 17 18 19 20 21 22 23 24 25 26 27 28 29 30 31 32 33 34 35 36 37 38 39 40 41 42 43 44 45 46 47 48 49 50
000
FPUS83 KFGF 211231
OPUFGF
PRAIRIE TO PINES WEATHER ROUNDUP
NATIONAL WEATHER SERVICE EASTERN NORTH DAKOTA/GRAND FORKS ND
700 AM CDT THU AUG 21 2014

 **SATELLITE DATA USED TO AUGMENT SKY COVER AT AUTOMATED STATIONS**
 *****  WEATHER ACROSS EASTERN NORTH DAKOTA  *****

CITY           SKY/WX    TMP DP  RH WIND       PRES   REMARKS
GRAND FORKS    CLOUDY    69  65  86 SE7       29.76R
6HR MIN TEMP:  68; 6HR MAX TEMP:  71; 6HR PCP: TRACE;

GRAND FORKS AF CLOUDY    68  67  99 E2        29.78R
GRAND CITY NWS   N/A     46 N/A N/A SE1         N/A
BUXTON           N/A     67  67  99 SE5         N/A
DEVILS LAKE    CLOUDY    68  63  83 SE8       29.75S
6HR MIN TEMP:  68; 6HR MAX TEMP:  72;

FARGO          CLOUDY    69  67  93 NE3       29.74R
6HR MIN TEMP:  69; 6HR MAX TEMP:  72; 6HR PCP:  0.02;

WAHPETON ARPT  MOSUNNY   66  63  88 S6        29.74R
$$

 *****  WEATHER ACROSS CENTRAL AND WESTERN NORTH DAKOTA  *****

CITY           SKY/WX    TMP DP  RH WIND       PRES   REMARKS
JAMESTOWN      MOCLDY    68  66  93 SE8       29.73F
6HR MIN TEMP:  67; 6HR MAX TEMP:  72; 6HR PCP: TRACE;

BISMARCK       CLOUDY    65  64  97 NW5       29.80R
6HR MIN TEMP:  64; 6HR MAX TEMP:  70;

MINOT          PTCLDY    63  61  93 NW7       29.79S
6HR MIN TEMP:  63; 6HR MAX TEMP:  65; 6HR PCP: TRACE;

MINOT AFB      CLEAR     59  59 100 NW5       29.80R FOG
6HR MIN TEMP:  60; 6HR MAX TEMP:  65; 6HR PCP: TRACE;

GARRISON         N/A     64  63  96 NW9       29.81R
6HR MIN TEMP:  62; 6HR MAX TEMP:  66;

WILLISTON      CLEAR     56  56 100 CALM      29.87R FOG
6HR MIN TEMP:  54; 6HR MAX TEMP:  62;

DICKINSON      CLEAR     56  54  93 W6        29.86R
6HR MIN TEMP:  54; 6HR MAX TEMP:  60;

HETTINGER      PTCLDY    54  52  93 NW7       29.89R
6HR MIN TEMP:  53; 6HR MAX TEMP:  58;

$$

 *****  OTHER OBSERVATIONS NORTHEAST NORTH DAKOTA  *****

CITY           SKY/WX    TMP DP  RH WIND       PRES   REMARKS
WALHALLA         N/A     66  66 100 N3        29.81R
LANGDON        CLOUDY    66  66 100 E12       29.80F FOG
CAVALIER       PTSUNNY   64  64 100 NE6       29.80R
GRAFTON        PTSUNNY   64  64 100 NE3       29.79R
CANDO          CLOUDY    66  66 100 E9        29.77F THUNDER FOG
FORT TOTTEN      N/A     67  66  97 SE5       29.95S
ROLLA          CLOUDY    63  63 100 NE13      29.81S
RUGBY          PTSUNNY   66  66 100 N5        29.78R
 ***** THE ABOVE OBSERVATIONS ARE NON NWS ARE NOT QUALITY
        CONTROLLED AND MAY MIS-REPORT RAIN FOR SNOW...
$$

 *****  OTHER OBSERVATIONS SOUTHEAST NORTH DAKOTA *****

CITY           SKY/WX    TMP DP  RH WIND       PRES   REMARKS
COOPERSTOWN    NOT AVBL
VALLEY CITY    CLOUDY    68  68 100 SE8       29.74F FOG
OAKES          NOT AVBL
GWINNER        PTSUNNY   70  70 100 SE8       29.74S
BUFFALO          N/A     69  66  90 E6          N/A
WYNDMERE       NOT AVBL
 ***** THE ABOVE OBSERVATIONS ARE NON NWS ARE NOT QUALITY
       CONTROLLED AND MAY MIS-REPORT RAIN FOR SNOW...
$$

  *****  WEATHER ACROSS NORTHERN MINNESOTA  *****

CITY           SKY/WX    TMP DP  RH WIND       PRES   REMARKS
FLAG ISLAND    MOCLDY    66  61  82 SE6       29.86F
WARROAD        CLOUDY    63  57  82 E8        29.85F
ROSEAU         CLOUDY    64  59  82 E6        29.84S
HALLOCK        CLOUDY    66  64  94 CALM      29.79R
THF RVR FALLS  CLOUDY    64  63  94 E8        29.80R
6HR MIN TEMP:  64; 6HR MAX TEMP:  64;

HALSTAD          N/A     67  64  90 E6          N/A
FOSSTON        CLOUDY    63  61  94 E3        29.79F
BAUDETTE       CLOUDY    60  58  92 SE8       29.87F
6HR MIN TEMP:  59; 6HR MAX TEMP:  62;

WASKISH        CLOUDY    61  57  88 E7        29.86S
CROOKSTON      MOCLDY    66  64  94 SE8       29.78R
$$
  *****  WEATHER ACROSS CENTRAL AND WEST MINNESOTA  *****

CITY           SKY/WX    TMP DP  RH WIND       PRES   REMARKS
BEMIDJI        CLOUDY    64  61  91 E9        29.83R
PARK RAPIDS    CLOUDY    65  64  97 SE7       29.78F
6HR MIN TEMP:  64; 6HR MAX TEMP:  67; 6HR PCP:  0.19;

WADENA         CLOUDY    64  63  94 E5        29.75R
DETROIT LAKES  CLOUDY    68  64  88 SE3       29.78R
MOORHEAD       MOCLDY    68  68 100 CALM      29.76R
FERGUS FALLS   MOCLDY    68  66  94 SE6       29.74R
ELBOW LAKE     FAIR      67  66  97 SE7       29.73S
MORRIS MN      PTCLDY    70  68  94 SE10      29.72R
STAPLES        LGT RAIN  63  63 100 SE13      29.74F
WHEATON        CLEAR     64  64 100 S5        29.75S
$$
  *****  WEATHER ELSEWHERE ACROSS MINNESOTA  *****

CITY           SKY/WX    TMP DP  RH WIND       PRES   REMARKS
DULUTH         CLOUDY    60  58  92 E12       29.91S FOG
6HR MIN TEMP:  60; 6HR MAX TEMP:  62;

INTRNTL FALLS  CLOUDY    59  58  96 E9        29.91S
6HR MIN TEMP:  55; 6HR MAX TEMP:  59;

ELY            MOCLDY    61  57  88 CALM      29.95S
CLOQUET        CLOUDY    61  59  94 CALM      29.92R
BRAINERD       RAIN      63  62  97 E8        29.83F FOG
6HR MIN TEMP:  63; 6HR MAX TEMP:  66; 6HR PCP:  0.48;

HIBBING        CLOUDY    61  58  90 E7        29.92S
6HR MIN TEMP:  54; 6HR MAX TEMP:  61;

ALEXANDRIA     CLOUDY    67  65  93 SE16      29.76F
6HR MIN TEMP:  67; 6HR MAX TEMP:  69; 6HR PCP:  0.67;

SAINT CLOUD    LGT RAIN  68  65  90 E10       29.80F
6HR MIN TEMP:  67; 6HR MAX TEMP:  70; 6HR PCP:  1.47;

MINNEAPOLIS    CLOUDY    70  69  97 N8        29.86R
6HR MIN TEMP:  70; 6HR MAX TEMP:  72; 6HR PCP:  0.03;

$$

  *****  WEATHER ACROSS SOUTH DAKOTA  *****

CITY           SKY/WX    TMP DP  RH WIND       PRES   REMARKS
SIOUX FALLS    MOCLDY    73  70  90 W3        29.74R
6HR MIN TEMP:  73; 6HR MAX TEMP:  77;

BROOKINGS      NOT AVBL
WATERTOWN      MOCLDY    67  66  97 CALM      29.77R
6HR MIN TEMP:  65; 6HR MAX TEMP:  73; 6HR PCP:  0.38;

HURON          PTCLDY    67  65  93 NW8       29.75R
6HR MIN TEMP:  67; 6HR MAX TEMP:  74;

SISSETON         N/A     67  67 100 S5        29.73R
ABERDEEN       MOCLDY    63  63 100 W6        29.74R
6HR MIN TEMP:  63; 6HR MAX TEMP:  66; 6HR PCP:  0.86;

MITCHELL       FOG       70  70 100 NW7       29.74R VSB 1/4
PIERRE         CLEAR     65  64  97 NW12      29.78R
6HR MIN TEMP:  63; 6HR MAX TEMP:  72;

MOBRIDGE       CLOUDY    66  66 100 NW10      29.78R
RAPID CITY     MOCLDY    62  59  90 CALM      29.91R
6HR MIN TEMP:  62; 6HR MAX TEMP:  67; 6HR PCP:  0.02;

$$

  *****  SOME WEATHER IN NEARBY STATES *****

CITY           SKY/WX    TMP DP  RH WIND       PRES   REMARKS
GLASGOW MT     MOCLDY    63  58  83 N9        29.90R
6HR MIN TEMP:  62; 6HR MAX TEMP:  66;

GREAT FALLS MT CLOUDY    55  53  93 NW5       30.04R
6HR MIN TEMP:  53; 6HR MAX TEMP:  55; 6HR PCP: TRACE;

CHEYENNE WY    CLEAR     58  45  62 W15G24    30.11R
6HR MIN TEMP:  54; 6HR MAX TEMP:  63;

SCOTTSBLUFF NE CLEAR     58  50  75 NW5       29.98R
6HR MIN TEMP:  58; 6HR MAX TEMP:  73;

OMAHA NE       CLOUDY    80  67  64 S12       29.81R
6HR MIN TEMP:  77; 6HR MAX TEMP:  81;

DES MOINES IA  CLOUDY    77  69  76 SW9       29.82R
6HR MIN TEMP:  76; 6HR MAX TEMP:  78;

DAVENPORT IA   MOCLDY    72  70  93 S6        29.91R
6HR MIN TEMP:  70; 6HR MAX TEMP:  72;

CHICAGO IL     TSTM      72  67  84 CALM      29.94R
6HR MIN TEMP:  70; 6HR MAX TEMP:  74; 6HR PCP:  0.06;

EAU CLAIRE WI  LGT RAIN  66  65  96 E7        29.89R
6HR MIN TEMP:  65; 6HR MAX TEMP:  68; 6HR PCP:  0.03;

LA CROSSE WI   LGT RAIN  73  67  81 S8        29.89R
6HR MIN TEMP:  71; 6HR MAX TEMP:  73;

$$

  *****  SOME NATIONAL WEATHER *****

CITY           SKY/WX    TMP DP  RH WIND       PRES   REMARKS
LA GUARDIA NY  PTSUNNY   71  62  73 VRB5      30.05R
6HR MIN TEMP:  69; 6HR MAX TEMP:  73; 6HR PCP:  0.07;




USA.gov is the U.S. government's official web portal to all federal, state and local government web resources and services.